Regional Weather Roundup
Issued by NWS

Home | Current Version | Previous Version | Graphics & Text | Print | Product List | Glossary On
Versions: 1 2 3 4 5 6 7 8 9 10 11 12 13 14 15 16 17 18 19 20 21 22 23 24 25 26 27 28 29 30 31 32 33 34 35 36 37 38 39 40 41 42 43 44 45 46 47 48 49 50
000
ASUS43 KMKX 192301
RWRWI

WISCONSIN REGIONAL WEATHER ROUNDUP
NATIONAL WEATHER SERVICE MILWAUKEE/SULLIVAN WI
600 PM CDT TUE SEP 19 2017

NOTE: "FAIR" INDICATES FEW OR NO CLOUDS BELOW 12,000 FEET WITH NO
SIGNIFICANT WEATHER AND/OR OBSTRUCTIONS TO VISIBILITY.

WIZ001-002-006>008-014>016-023>028-200000-
NORTHWEST WISCONSIN

CITY           SKY/WX    TMP DP  RH WIND       PRES   REMARKS
SUPERIOR ARPT  CLOUDY    62  58  87 NE15      29.82F
ASHLAND        PTSUNNY   64  60  87 N7        29.85S
HAYWARD        MOSUNNY   73  58  59 SE7G17    29.83F
SIREN          CLOUDY    75  60  59 SE7       29.79S
CUMBERLAND     CLOUDY    72  59  64 SE13      29.82S
RICE LAKE      CLOUDY    75  61  61 SE10G16   29.83S
CHETEK         MOSUNNY   74  63  67 SE12      29.82F
LADYSMITH      SUNNY     76  57  51 SE9       29.86F
EAU CLAIRE     NOT AVBL
MENOMONIE      MOSUNNY   77  63  62 SE10G17   29.80F
NEW RICHMOND   CLOUDY    74  61  62 SE15      29.78F
OSCEOLA        PTSUNNY   76  62  61 SE13G20   29.78F
$$

WIZ003>005-009-010-017-018-200000-
NORTH CENTRAL WISCONSIN

CITY           SKY/WX    TMP DP  RH WIND       PRES   REMARKS
MANITOWISH WTR CLEAR     72  58  60 S5        29.90F
ARBOR VITAE    CLEAR     72  58  61 SE9       29.91F
WOODRUFF       CLEAR     72  58  61 SE9       29.91F
RHINELANDER    CLEAR     70  58  65 SE10      29.93F
EAGLE RIVER    CLEAR     71  54  55 SE10      29.93F
LAND O LAKES   CLEAR     71  56  59 SE8       29.95S
PHILLIPS       MOSUNNY   73  57  57 SE12      29.87F
TOMAHAWK         N/A     72  57  59 SE3       29.91F
MEDFORD        SUNNY     72  55  53 SE9       29.89F
MERRILL        NOT AVBL
$$

WIZ029-030-035-036-043>047-200000-
CENTRAL WISCONSIN

CITY           SKY/WX    TMP DP  RH WIND       PRES   REMARKS
WAUSAU         CLEAR     72  59  63 SE14      29.89F
MOSINEE        MOSUNNY   72  57  60 SE9       29.91F
MARSHFIELD     SUNNY     75  52  44 SE8       29.87F
STEVENS POINT  CLEAR     73  55  54 SE9       29.91S
WAUPACA        CLEAR     76  59  55 E9        29.92S
WAUTOMA        CLEAR     76  62  62 E12       29.89F
WISC RAPIDS    SUNNY     77  54  44 SE8       29.89F
CAMP DOUGLAS   NOT AVBL
$$

WIZ011>013-019>022-031-037>040-048>050-200000-
NORTHEAST WISCONSIN

CITY           SKY/WX    TMP DP  RH WIND       PRES   REMARKS
ANTIGO         CLEAR     69  58  68 SE12      29.95S
SHAWANO        CLEAR     73  59  61 E10       29.94S
OCONTO         CLEAR     70  56  61 E5        29.94F
STURGEON BAY   CLEAR     67  55  65 E6        29.96F
GREEN BAY      CLEAR     71  57  61 SE10      29.94S
MANITOWOC      CLEAR     65  59  81 E7        29.95F
APPLETON       CLEAR     73  54  49 SE12      29.92F
CLINTONVILLE   CLEAR     73  55  53 SE9       29.93S
OSHKOSH        CLEAR     72  61  68 E12       29.92S
$$

WIZ032>034-041-042-053>061-200000-
SOUTHWEST WISCONSIN

CITY           SKY/WX    TMP DP  RH WIND       PRES   REMARKS
LA CROSSE      SUNNY     81  63  54 SE9       29.80F HX  82
SPARTA         SUNNY     78  62  57 SE8       29.85F
VIROQUA        MOSUNNY   77  63  62 SE10      29.86F
BOSCOBEL       MOSUNNY   81  62  52 SE8       29.84F HX  82
PRAIRIE DU CHI SUNNY     80  60  50 SE8       29.83S HX  80
PLATTEVILLE    SUNNY     79  63  57 S8        29.87F HX  80
$$

WIZ056-057-062-063-064-067-068-200000-
SOUTH CENTRAL WISCONSIN

CITY           SKY/WX    TMP DP  RH WIND       PRES   REMARKS
REEDSBURG      SUNNY     78  59  52 SE6       29.87F
BARABOO/DELLS  SUNNY     78  54  43 SE9       29.89S
LONE ROCK      NOT AVBL
MINERAL POINT  MOSUNNY   79  63  57 SE9       29.88F HX  80
MADISON        MOSUNNY   78  61  55 SE10      29.88F HX  80
MIDDLETON      MOSUNNY   79  62  57 E8        29.89F HX  80
WATERTOWN      CLEAR     74  64  69 E8        29.91S
MONROE         SUNNY     77  61  57 E6        29.89F
JANESVILLE     CLEAR     81  63  54 E9        29.88F HX  82
$$

WIZ051-052-058>065-066-070>072-200000-
SOUTHEAST WISCONSIN

CITY           SKY/WX    TMP DP  RH WIND       PRES   REMARKS
MILWAUKEE      CLOUDY    68  64  87 E5        29.93F
WAUKESHA       MOCLDY    66  61  82 SE9       29.95R
MILWAUKEE/TIMM CLOUDY    66  59  77 E6        29.95S
RACINE         CLOUDY    68  65  90 E5        29.95F
BURLINGTON     CLEAR     72  65  78 E9        29.92S
KENOSHA        PTCLDY    69  63  81 E9        29.93F
FOND DU LAC    CLEAR     73  58  59 SE12      29.92S
SHEBOYGAN      CLEAR     67  61  81 E6        29.94F
WEST BEND        N/A     66  63  88 SE8       29.95S
JUNEAU         CLEAR     74  62  66 E8        29.92F
$$

LSZ147-162-200000-
LAKE SUPERIOR

STATION/POSITION TIME  TEMP    WIND        PRES    WAVE
                       AIR SEA DIR/SP/G            HT/PER
                 (UTC) (F)     (DEG/KT/KT) (MB)    (FT/S)
W MID LAKE BUOY  2150   58 55   50/ 14/ 16 1012.2F   1/ 4
DEVILS ISLAND    2200   59      70/ 10/ 12 1011.6F
SAXON HARBOR     2230   75     160/  2/  5 1010.2F
$$

LMZ867-665-643>646-200000-
LAKE MICHIGAN

STATION/POSITION TIME  TEMP    WIND        PRES    WAVE
                       AIR SEA DIR/SP/G            HT/PER
                 (UTC) (F)     (DEG/KT/KT) (MB)    (FT/S)
S GREEN BAY BUOY 2230   69 67  100/  6/  8 1014.0F
N MID LAKE BUOY  2150   65 65   60/  8/ 10 1015.6F   1/ 3
NORTHPORT PIER   2240   67      80/  5/  7 1014.9S
KEWAUNEE LAKESHO 2230   66      30/  2/  4 1013.8F
SHEBOYGAN LAKESH 2200   65      90/  6/  6 1013.9F
PORT WASHINGTON  2240   67      80/  3/  6 1014.6F
ATWATER BUOY     2109   67 68   60/ 10/ 12 1014.4F
MILWAUKEE LAKESH 2250   66      80/  3/  3   N/A
S MID LAKE BUOY  2150   68 69   20/  6/  6 1013.7F   1/ 4
KENOSHA   LAKESH 2200   68      70/  7/  9 1013.5
$$

TC  - TEMPERATURE IN CELSIUS
VSB - VISIBILITY IN STATUTE MILES
WCI - WIND CHILL INDEX
HX  - HEAT INDEX





USA.gov is the U.S. government's official web portal to all federal, state and local government web resources and services.